AirNav   Pilot Hours Calculator
 
 1375 users online  

7NY7 Palisades Conference Center Heliport
Orangetown, New York, USA

GOING TO ORANGETOWN?


FAA INFORMATION EFFECTIVE 22 APRIL 2021

Location

FAA Identifier: 7NY7
Lat/Long: 41-01-07.3500N 073-55-03.4900W
41-01.122500N 073-55.058167W
41.0187083,-73.9176361
(estimated)
Elevation: 173 ft. / 53 m (estimated)
Variation: 13W (1985)
From city: 3 miles N of ORANGETOWN, NY
Time zone: UTC -4 (UTC -5 during Standard Time)
Zip code: 10976

Heliport Operations

Heliport use: Private use. Permission required prior to landing
Activation date: 06/1991
Control tower: no
ARTCC: NEW YORK CENTER
FSS: NEW YORK FLIGHT SERVICE STATION
Attendance: UNATNDD
Wind indicator: yes
Segmented circle: no

Heliport Communications

WX ASOS at HPN (10 nm E): PHONE 914-288-0216
WX ASOS at TEB (12 nm SW): PHONE 201-393-0855
WX ASOS at LGA (15 nm S): PHONE 718-672-6317
WX ASOS at CDW (19 nm SW): 135.5 (973-575-4417)
WX AWOS-3PT at JRB (19 nm S): 128.175 (212-425-1534)

Nearby radio navigation aids

VOR radial/distance  VOR name  Freq  Var
TEBr044/12.1TETERBORO VOR/DME108.4011W
LGAr003/14.3LA GUARDIA VOR/DME113.1012W
CMKr236/21.8CARMEL VOR/DME116.6012W
JFKr356/24.1KENNEDY VOR/DME115.9012W
CRIr009/24.4CANARSIE VOR/DME112.3011W
SAXr107/28.2SPARTA VORTAC115.7011W
DPKr308/31.0DEER PARK VOR/DME117.7012W
BDRr269/36.9BRIDGEPORT VOR/DME108.8012W
HUOr139/38.4HUGUENOT VOR/DME116.1011W
IGNr198/39.0KINGSTON VOR/DME117.6012W

 
NDB name  Hdg/Dist  Freq  Var  ID
CHATHAM067/28.625413WCAT -.-. .- -
STANWYCK181/31.126112WSKU ... -.- ..-
BABYLON325/31.927514WBBN -... -... -.

Heliport Services

Runway Information

Helipad H1

Dimensions: 40 x 40 ft. / 12 x 12 m
Surface: asphalt, in good condition
Runway edge lights: medium intensity
Traffic pattern: leftleft

Heliport Ownership and Management from official FAA records

Ownership: Privately-owned
Owner: HNA TRAINING CENTER NY LLC
1180 AVENUE OF THE AMERICAS, SUITE 1910
NEW YORK, NY 10036
Phone 212-335-2080
Manager: WILLIAM DANIELSON
HNA PALISADES PREMIER CONF CNTR, 334 ROUTE 9W
PALISADES, NY 10964
Phone 845-732-6224
ADDITIONAL CONTACT: CHRIS COSTABILE HNA PALISADES 334 RT 9W 845-732-6300 CHRIS.COSTABLE@HNAPALISADES.COM

Additional Remarks

A52-H1 40 FT TREES 280 FT FROM HELIPAD.
APPROACHES/DEPARTURES ONLY FROM EAST AND WEST.
NO FLY AREA / ZONE NORTH AND SOUTH OF HELIPAD FOR NOISE.
FOR CD CTC NEW YORK APCH AT 800-645-3206.

Instrument Procedures

There are no published instrument procedures at 7NY7.

Some nearby airports with instrument procedures:

KHPN - Westchester County Airport (10 nm E)
KTEB - Teterboro Airport (12 nm SW)
KLGA - LaGuardia Airport (15 nm S)
KJRA - West 30th St Heliport (16 nm S)
6N5 - East 34th Street Heliport (17 nm S)
N07 - Lincoln Park Airport (18 nm W)
KCDW - Essex County Airport (19 nm SW)
KJRB - Downtown Manhattan/Wall Street Heliport (19 nm S)
 
Loc | Ops | Rwys | IFR | FBO | Links
Com | Nav | Svcs | Stats | Notes
Area around 7NY7 (Palisades Conference Center Heliport)
 
Road maps at: MapQuest Bing Google
 
Aerial photo
No photo
 
Sectional chart

 
Airport distance calculator
Flying to Palisades Conference Center Heliport? Find the distance to fly.

From to 7NY7

Sunrise and sunset
Times for 14-May-2021
 Local
(UTC-4)
 Zulu
(UTC)
Morning civil twilight05:0909:09
Sunrise05:4009:40
Sunset20:0400:04
Evening civil twilight20:3500:35

Current date and time
Zulu (UTC)  14-May-2021 14:42:06
Local (UTC-4)  14-May-2021 10:42:06
 
METAR
KHPN 
10nm E 
141356Z 35006KT 10SM CLR 19/03 A3023 RMK AO2 SLP235 T01890028
KTEB 
11nm SW 
141351Z 08003KT 10SM CLR 19/04 A3023 RMK AO2 SLP236 T01890039
KLGA 
14nm S 
141351Z VRB04KT 10SM CLR 20/03 A3023 RMK AO2 SLP237 T02000028
KNYC 
14nm S 
141351Z VRB04KT 10SM CLR 18/02 A3026 RMK AO2 SLP239 T01830022 $
KCDW 
18nm SW 
141353Z VRB03KT 10SM CLR 20/02 A3024 RMK AO2 SLP246 T02000022
KJRB 
19nm S 
141356Z AUTO 22004KT 10SM CLR 19/04 A3025 RMK AO2 PK WND 28038/1308 SLP243 T01940039
TAF
KHPN 
10nm E 
141126Z 1412/1512 VRB03KT P6SM FEW070 FEW250 FM141500 31006KT P6SM FEW080 SCT250 FM141800 27007KT P6SM SCT080 SCT250 FM142300 VRB04KT P6SM SCT250 AMD NOT SKED
KTEB 
11nm SW 
141126Z 1412/1518 VRB03KT P6SM FEW090 FEW250 FM141500 35005KT P6SM FEW080 SCT250 FM142100 23007KT P6SM SCT080 SCT250 FM150200 VRB03KT P6SM FEW250
KLGA 
14nm S 
141126Z 1412/1518 VRB05KT P6SM FEW250 FM141400 04006KT P6SM FEW080 SCT250 FM141900 21007KT P6SM SCT080 SCT250 FM142100 20011KT P6SM SCT080 SCT250 FM150300 VRB04KT P6SM FEW250
NOTAMs
Click for the latest NOTAMs
NOTAMs are issued by the DoD/FAA and will open in a separate window not controlled by AirNav.

 

 
 

Would you like to see your business listed on this page?

 If your business provides an interesting product or service to pilots, flight crews, aircraft, or users of the Palisades Conference Center Heliport, you should consider listing it here.  To start the listing process, click on the button below
 
Add a business
 

Other Pages about Palisades Conference Center Heliport

Update a link
 
Copyright © AirNav, LLC. All rights reserved. Privacy Policy  Contact